Date,TemperatureHighF,TemperatureAvgF,TemperatureLowF,DewpointHighF,DewpointAvgF,DewpointLowF,HumidityHigh,HumidityAvg,HumidityLow,PressureMaxIn,PressureMinIn,WindSpeedMaxMPH,WindSpeedAvgMPH,GustSpeedMaxMPH,PrecipitationSumIn
2013-2-1,36.9,23.2,16.2,29.7,14.9,8.0,94,71,54,30.37,29.92,0,0,0,0.00
2013-2-2,39.4,28.3,17.7,31.2,18.1,3.9,97,67,42,30.37,30.04,0,0,0,0.00
2013-2-3,41.0,31.4,24.9,33.5,27.0,20.7,96,84,62,30.04,29.90,0,0,0,0.05
2013-2-4,47.4,34.7,22.8,27.9,22.3,17.0,87,63,39,30.13,29.97,0,0,0,0.00
2013-2-5,51.4,43.8,37.5,38.9,30.4,21.9,72,59,49,29.98,29.89,0,0,0,0.00
2013-2-6,54.4,44.7,36.0,37.0,28.1,20.6,83,55,29,30.19,29.96,0,0,0,0.00
2013-2-7,45.4,40.4,37.1,39.1,30.7,19.7,97,72,36,30.18,29.94,0,0,0,0.38
2013-2-8,46.7,38.3,30.3,41.9,36.0,27.2,100,92,68,30.12,29.89,0,0,0,0.02
2013-2-9,52.1,37.7,24.8,28.0,23.1,15.5,94,62,27,30.33,30.08,0,0,0,0.00
2013-2-10,46.7,41.5,37.3,44.0,27.2,19.5,99,60,39,30.32,30.07,0,0,0,0.22
2013-2-11,53.3,47.2,43.1,50.6,42.2,24.0,100,85,44,30.11,29.97,0,0,0,0.02
2013-2-12,48.5,41.3,35.3,35.7,28.3,20.1,94,62,37,30.09,29.86,0,0,0,0.18
2013-2-13,45.1,37.0,31.6,43.0,35.7,29.8,99,95,80,29.88,29.62,0,0,0,0.14
2013-2-14,50.2,38.2,29.0,31.5,28.1,21.9,94,69,39,30.04,29.88,0,0,0,0.00
2013-2-15,54.4,40.5,29.9,36.9,31.3,27.8,96,72,38,30.07,29.92,0,0,0,0.00
2013-2-16,31.7,26.8,19.6,28.5,22.5,13.3,96,84,56,30.00,29.84,0,0,0,0.01
2013-2-17,31.8,23.5,16.6,14.8,11.3,8.8,77,60,42,30.29,30.00,0,0,0,0.00
2013-2-18,48.3,35.9,23.6,26.0,18.9,9.6,59,50,39,30.37,30.13,0,0,0,0.00
2013-2-19,50.9,38.5,30.3,41.9,27.5,15.0,97,66,40,30.15,29.85,0,0,0,0.01
2013-2-20,41.6,31.8,25.5,17.7,9.9,-0.6,63,42,19,30.15,30.01,0,0,0,0.00
2013-2-21,57.9,39.5,25.5,33.6,15.0,3.5,94,41,12,30.22,30.06,0,0,0,0.22
2013-2-22,40.4,36.3,31.7,39.6,34.9,30.1,99,95,85,30.21,30.05,0,0,0,0.24
2013-2-23,52.3,45.5,37.1,50.2,43.2,35.5,100,92,64,30.07,29.80,0,0,0,0.20
2013-2-24,51.2,42.3,35.4,40.5,30.0,22.3,95,65,34,30.02,29.81,0,0,0,0.00
2013-2-25,42.9,36.9,31.2,28.6,24.7,21.5,89,61,48,30.07,29.94,0,0,0,0.00
2013-2-26,37.9,32.8,29.4,37.6,31.9,27.6,99,97,89,29.95,29.63,0,0,0,0.42
2013-2-27,51.4,39.6,33.1,36.4,33.0,29.5,97,79,53,29.79,29.64,0,0,0,0.00
2013-2-28,37.4,30.8,27.7,32.7,26.9,23.8,96,85,72,29.91,29.68,0,0,0,0.01